Santa Fe

Airport
ICAO code: 
KSAF
Summary
ICAO Region: 
NAM
Territory: 
Location: 
Santa Fe, New Mexico,
Coordinates: 
Aerial View: 
35° 36' 59.271" N, 106° 5' 20.677" W
Airport RE: 
Hot and High Operations
Metar
Observation
KSAF 251253Z AUTO 01007KT 10SM CLR 05/00 A3010 RMK AO2 SLP138 T00500000
Station
Santa Fe, Santa Fe County Municipal Airport
Date/Time
2022-05-25 12:53:00
Wind direction
10°
Wind speed
07 kts
Lowest cloud amount
n/a
Temperature
5°C
Dew point
0°C
Humidity
70%
Weather condition
n/a

Description

Santa Fe Municipal Airport is a public airport located 14 km southwest of the central business district (CBD) of Santa Fe, a city in Santa Fe County, New Mexico.

Climatology

A semi-arid steppe climate (Köppen climate classification BSk), with generally cold, dry winters and hot summers. Late spring and early summer is on average the wettest period of the year.

Runways

Designator Length Width Surface Rops
10/28 1920 23 ASP Yes/Yes
15/33 1922 46 ASP Yes/Yes
2/20 2543 46 ASP Yes/Yes
Airport map: 
Aerial View: 

SKYbrary Partners:

Safety knowledge contributed by: